CES6296 ZGSZ-ZBAD

Flight info

Callsign CES6296
Flight time N/A
Altitude 33100
Route MIPAG W21 TEPID W22 YIN A461 BUBDA W56 ORODO W62 TEKIL G212 BELAX
Aircraft A321/M-SDE3FGHIRWYZ/EB1

Departure

Time 2026-05-06 09:18
Airport Shenzhen Bao'an International Airport (ZGSZ)

Arrival

Time N/A
Airport Beijing Daxing International Airport (ZBAD)
Time Latitude Longitude Altitude Speed Heading
2026-05-06 08:58 22.64198 113.79741 16 ft 0 kts 62°
2026-05-06 09:06 22.64197 113.79739 16 ft 2 kts 62°
2026-05-06 09:06 22.64185 113.79714 16 ft 4 kts 62°
2026-05-06 09:07 22.64172 113.79688 18 ft 4 kts 62°
2026-05-06 09:07 22.64160 113.79665 16 ft 2 kts 62°
2026-05-06 09:07 22.64151 113.79640 17 ft 4 kts 91°
2026-05-06 09:07 22.64159 113.79618 17 ft 4 kts 145°
2026-05-06 09:08 22.64183 113.79605 18 ft 4 kts 155°
2026-05-06 09:08 22.64189 113.79602 19 ft 0 kts 153°
2026-05-06 09:10 22.64149 113.79624 16 ft 6 kts 153°
2026-05-06 09:10 22.64125 113.79637 16 ft 5 kts 158°
2026-05-06 09:10 22.64092 113.79632 16 ft 5 kts 205°
2026-05-06 09:11 22.64058 113.79584 16 ft 11 kts 241°
2026-05-06 09:11 22.64033 113.79520 16 ft 14 kts 260°
2026-05-06 09:11 22.64089 113.79451 16 ft 13 kts 333°
2026-05-06 09:11 22.64166 113.79409 16 ft 12 kts 333°
2026-05-06 09:12 22.64237 113.79370 16 ft 11 kts 333°
2026-05-06 09:12 22.64319 113.79325 16 ft 16 kts 333°
2026-05-06 09:12 22.64415 113.79271 16 ft 15 kts 333°
2026-05-06 09:12 22.64508 113.79221 16 ft 15 kts 333°
2026-05-06 09:13 22.64594 113.79174 16 ft 14 kts 333°
2026-05-06 09:13 22.64677 113.79128 16 ft 13 kts 333°
2026-05-06 09:13 22.64756 113.79085 16 ft 12 kts 333°
2026-05-06 09:13 22.64831 113.79044 16 ft 12 kts 333°
2026-05-06 09:14 22.64901 113.79005 16 ft 12 kts 333°
2026-05-06 09:14 22.64995 113.78953 16 ft 16 kts 333°
2026-05-06 09:14 22.65093 113.78899 16 ft 15 kts 333°
2026-05-06 09:14 22.65186 113.78848 16 ft 15 kts 333°
2026-05-06 09:15 22.65274 113.78800 16 ft 14 kts 333°
2026-05-06 09:15 22.65358 113.78754 16 ft 13 kts 333°
2026-05-06 09:15 22.65438 113.78710 16 ft 12 kts 333°
2026-05-06 09:15 22.65489 113.78659 16 ft 9 kts 281°
2026-05-06 09:16 22.65469 113.78597 16 ft 11 kts 244°
2026-05-06 09:16 22.65421 113.78522 16 ft 12 kts 204°
2026-05-06 09:16 22.65345 113.78544 16 ft 11 kts 151°
2026-05-06 09:16 22.65274 113.78583 16 ft 14 kts 153°
2026-05-06 09:17 22.65077 113.78691 16 ft 63 kts 153°
2026-05-06 09:17 22.64498 113.79009 16 ft 123 kts 153°
2026-05-06 09:17 22.63590 113.79509 16 ft 168 kts 153°
2026-05-06 09:17 22.62487 113.80113 485 ft 173 kts 153°
2026-05-06 09:18 22.61410 113.80556 1205 ft 165 kts 171°
2026-05-06 09:18 22.60282 113.80715 1883 ft 162 kts 172°
2026-05-06 09:18 22.59164 113.80870 2465 ft 163 kts 172°
2026-05-06 09:18 22.58033 113.81029 2991 ft 164 kts 172°
2026-05-06 09:19 22.56871 113.81194 3362 ft 176 kts 173°
2026-05-06 09:19 22.55589 113.81382 3553 ft 197 kts 173°
2026-05-06 09:19 22.54157 113.81601 3710 ft 219 kts 172°
2026-05-06 09:19 22.52563 113.81850 3900 ft 242 kts 172°
2026-05-06 09:20 22.50884 113.82041 4613 ft 243 kts 185°
2026-05-06 09:20 22.49334 113.81383 5255 ft 245 kts 223°
2026-05-06 09:20 22.48477 113.79821 5933 ft 247 kts 257°
2026-05-06 09:20 22.48255 113.77973 6666 ft 249 kts 264°
2026-05-06 09:21 22.48122 113.76099 7356 ft 251 kts 265°
2026-05-06 09:21 22.48009 113.74235 8036 ft 253 kts 266°
2026-05-06 09:21 22.48247 113.72336 8527 ft 266 kts 289°
2026-05-06 09:21 22.49330 113.70656 8914 ft 283 kts 318°
2026-05-06 09:22 22.51113 113.69711 9496 ft 295 kts 346°
2026-05-06 09:22 22.53192 113.69715 10064 ft 304 kts
2026-05-06 09:22 22.55365 113.69955 10206 ft 324 kts
2026-05-06 09:22 22.57679 113.70227 10325 ft 343 kts
2026-05-06 09:23 22.60108 113.70517 10505 ft 358 kts
2026-05-06 09:23 22.62614 113.70816 10954 ft 364 kts
2026-05-06 09:23 22.65137 113.71113 11492 ft 366 kts
2026-05-06 09:23 22.67681 113.71405 12039 ft 368 kts
2026-05-06 09:24 22.70238 113.71694 12576 ft 371 kts
2026-05-06 09:24 22.72816 113.71985 13113 ft 373 kts
2026-05-06 09:24 22.75408 113.72279 13643 ft 375 kts
2026-05-06 09:24 22.78012 113.72572 14105 ft 378 kts
2026-05-06 09:25 22.80638 113.72866 14526 ft 381 kts
2026-05-06 09:25 22.83284 113.73162 14940 ft 384 kts
2026-05-06 09:25 22.85946 113.73460 15335 ft 387 kts
2026-05-06 09:25 22.88642 113.73761 15736 ft 390 kts
2026-05-06 09:26 22.91357 113.73926 16104 ft 391 kts 353°
2026-05-06 09:26 22.94025 113.73411 16473 ft 391 kts 344°
2026-05-06 09:26 22.96689 113.72749 16870 ft 394 kts 344°
2026-05-06 09:26 22.99363 113.72076 17254 ft 396 kts 344°
2026-05-06 09:27 23.02037 113.71402 17626 ft 399 kts 344°
2026-05-06 09:27 23.04753 113.70714 17994 ft 402 kts 344°
2026-05-06 09:27 23.07484 113.70020 18319 ft 404 kts 344°
2026-05-06 09:27 23.10230 113.69323 18618 ft 406 kts 344°
2026-05-06 09:28 23.12990 113.68625 18936 ft 408 kts 344°
2026-05-06 09:28 23.15766 113.67925 19235 ft 410 kts 344°
2026-05-06 09:28 23.18569 113.67219 19546 ft 411 kts 344°
2026-05-06 09:28 23.21368 113.66514 19844 ft 413 kts 344°
2026-05-06 09:29 23.23979 113.65853 20112 ft 414 kts 344°
2026-05-06 09:29 23.26855 113.65124 20403 ft 416 kts 344°
2026-05-06 09:29 23.29685 113.64408 20690 ft 418 kts 344°
2026-05-06 09:29 23.32523 113.63690 20966 ft 420 kts 344°
2026-05-06 09:30 23.35375 113.62966 21255 ft 421 kts 344°
2026-05-06 09:30 23.38220 113.62245 21541 ft 423 kts 344°
2026-05-06 09:30 23.41094 113.61518 21829 ft 425 kts 344°
2026-05-06 09:30 23.43982 113.60786 22125 ft 427 kts 343°
2026-05-06 09:31 23.46877 113.60050 22431 ft 429 kts 343°
2026-05-06 09:31 23.49795 113.59307 22725 ft 431 kts 343°
2026-05-06 09:31 23.52759 113.58553 23036 ft 433 kts 343°
2026-05-06 09:31 23.55661 113.57814 23330 ft 435 kts 343°
2026-05-06 09:32 23.58619 113.57061 23616 ft 437 kts 343°
2026-05-06 09:32 23.61583 113.56306 23867 ft 439 kts 343°
2026-05-06 09:32 23.64556 113.55549 24124 ft 440 kts 343°
2026-05-06 09:32 23.67538 113.54790 24387 ft 442 kts 343°
2026-05-06 09:33 23.70539 113.54027 24649 ft 443 kts 343°
2026-05-06 09:33 23.73549 113.53264 24905 ft 444 kts 344°
2026-05-06 09:33 23.76565 113.52499 25160 ft 446 kts 343°
2026-05-06 09:33 23.79587 113.51731 25415 ft 447 kts 343°
2026-05-06 09:34 23.82621 113.50954 25669 ft 448 kts 343°
2026-05-06 09:34 23.85663 113.50173 25923 ft 450 kts 343°
2026-05-06 09:34 23.88713 113.49390 26175 ft 451 kts 343°
2026-05-06 09:34 23.91772 113.48605 26419 ft 452 kts 343°
2026-05-06 09:35 23.94847 113.47817 26678 ft 454 kts 343°
2026-05-06 09:35 23.97921 113.47029 26932 ft 455 kts 343°
2026-05-06 09:35 24.01008 113.46240 27196 ft 456 kts 343°
2026-05-06 09:35 24.04104 113.45450 27444 ft 457 kts 343°
2026-05-06 09:36 24.07211 113.44654 27653 ft 459 kts 343°
2026-05-06 09:36 24.10326 113.43852 27912 ft 460 kts 343°
2026-05-06 09:36 24.13444 113.43049 28154 ft 461 kts 343°
2026-05-06 09:36 24.16578 113.42246 28392 ft 463 kts 344°
2026-05-06 09:37 24.19770 113.41700 28597 ft 468 kts 353°
2026-05-06 09:37 24.23033 113.41676 28808 ft 471 kts 358°
2026-05-06 09:37 24.26317 113.41779 28993 ft 472 kts 358°
2026-05-06 09:37 24.29605 113.41879 29185 ft 474 kts 358°
2026-05-06 09:38 24.32908 113.41976 29359 ft 475 kts 358°
2026-05-06 09:38 24.36212 113.42070 29532 ft 475 kts 358°
2026-05-06 09:38 24.39523 113.42159 29691 ft 476 kts 358°
2026-05-06 09:38 24.42793 113.42242 29866 ft 476 kts 358°
2026-05-06 09:39 24.46106 113.42333 30060 ft 476 kts 358°
2026-05-06 09:39 24.49415 113.42437 30261 ft 475 kts 358°
2026-05-06 09:39 24.52726 113.42548 30487 ft 474 kts 358°
2026-05-06 09:39 24.56013 113.42663 30715 ft 472 kts 358°
2026-05-06 09:40 24.59290 113.42777 30937 ft 471 kts 358°
2026-05-06 09:40 24.62562 113.42888 31166 ft 469 kts 358°
2026-05-06 09:40 24.69072 113.43101 31667 ft 466 kts 358°
2026-05-06 09:41 24.72295 113.43194 31916 ft 465 kts 358°
2026-05-06 09:41 24.75537 113.43281 32169 ft 463 kts 357°
2026-05-06 09:41 24.78746 113.43362 32383 ft 461 kts 357°
2026-05-06 09:41 24.81957 113.43446 32633 ft 460 kts 357°
2026-05-06 09:42 24.85160 113.43533 32903 ft 459 kts 357°
2026-05-06 09:42 24.88343 113.43620 33001 ft 455 kts 357°
2026-05-06 09:42 24.94591 113.43795 33019 ft 446 kts 357°
2026-05-06 09:43 25.00794 113.43960 33018 ft 445 kts 357°
2026-05-06 09:43 25.06985 113.44119 33016 ft 445 kts 357°
2026-05-06 09:44 25.13174 113.44284 33020 ft 445 kts 357°
2026-05-06 09:44 25.19363 113.44457 33023 ft 445 kts 357°
2026-05-06 09:45 25.25535 113.44636 33021 ft 444 kts 357°
2026-05-06 09:45 25.31715 113.44805 33031 ft 445 kts 357°
2026-05-06 09:46 25.37911 113.44972 33026 ft 445 kts 357°
2026-05-06 09:46 25.44099 113.45147 33018 ft 445 kts 357°
2026-05-06 09:47 25.50291 113.45316 33023 ft 445 kts 357°
2026-05-06 09:47 25.56496 113.45491 33014 ft 445 kts 357°
2026-05-06 09:48 25.62686 113.45672 33019 ft 445 kts 357°
2026-05-06 09:48 25.68840 113.45852 33010 ft 445 kts 357°
2026-05-06 09:49 25.75031 113.46025 33007 ft 445 kts 357°
2026-05-06 09:49 25.81215 113.46196 33003 ft 445 kts 357°
2026-05-06 09:50 25.87409 113.46364 33000 ft 445 kts 356°
2026-05-06 09:50 25.93582 113.46257 32993 ft 443 kts 353°
2026-05-06 09:51 25.99732 113.45932 32985 ft 442 kts 352°
2026-05-06 09:51 26.05881 113.45620 32982 ft 443 kts 353°
2026-05-06 09:52 26.12037 113.45376 32977 ft 443 kts 353°
2026-05-06 09:52 26.18205 113.45158 32968 ft 443 kts 353°
2026-05-06 09:53 26.24368 113.44931 32963 ft 443 kts 353°
2026-05-06 09:53 26.29483 113.44730 32963 ft 443 kts 353°
2026-05-06 09:54 26.36649 113.44456 32951 ft 443 kts 353°
2026-05-06 09:54 26.41813 113.44256 32949 ft 443 kts 353°
2026-05-06 09:55 26.48979 113.43980 32945 ft 444 kts 353°
2026-05-06 09:55 26.54127 113.43785 32945 ft 444 kts 353°
2026-05-06 09:56 26.60303 113.43550 32945 ft 444 kts 353°
2026-05-06 09:56 26.66473 113.43312 32942 ft 444 kts 353°
2026-05-06 09:57 26.72653 113.43073 32944 ft 444 kts 353°
2026-05-06 09:57 26.78827 113.42838 32941 ft 443 kts 353°
2026-05-06 09:58 26.84995 113.42601 32936 ft 443 kts 353°
2026-05-06 09:58 26.91165 113.42361 32938 ft 444 kts 353°
2026-05-06 09:59 26.97343 113.42125 32934 ft 444 kts 353°
2026-05-06 09:59 27.03518 113.41888 32928 ft 444 kts 353°
2026-05-06 10:00 27.08419 113.41700 32932 ft 444 kts 353°
2026-05-06 10:00 27.14599 113.41465 32927 ft 445 kts 353°
2026-05-06 10:01 27.20794 113.41221 32929 ft 445 kts 353°
2026-05-06 10:01 27.26977 113.40977 32925 ft 445 kts 353°
2026-05-06 10:02 27.32926 113.40751 32924 ft 445 kts 353°
2026-05-06 10:02 27.39099 113.40736 32922 ft 448 kts 355°
2026-05-06 10:03 27.45339 113.40934 32926 ft 449 kts 356°
2026-05-06 10:03 27.51574 113.41129 32921 ft 448 kts 356°
2026-05-06 10:04 27.57810 113.41264 32920 ft 448 kts 355°
2026-05-06 10:04 27.64047 113.41369 32926 ft 448 kts 355°
2026-05-06 10:05 27.70289 113.41664 32921 ft 450 kts 358°
2026-05-06 10:05 27.76542 113.42284 32925 ft 451 kts 360°
2026-05-06 10:06 27.82805 113.42943 32933 ft 451 kts 359°
2026-05-06 10:06 27.88985 113.43519 32928 ft 451 kts 358°
2026-05-06 10:07 27.95196 113.44046 32924 ft 451 kts 358°
2026-05-06 10:07 28.01457 113.44576 32922 ft 451 kts 358°
2026-05-06 10:08 28.07695 113.45120 32922 ft 451 kts 358°
2026-05-06 10:08 28.13967 113.45636 32925 ft 451 kts 358°
2026-05-06 10:09 28.20225 113.46066 32923 ft 451 kts 357°
2026-05-06 10:09 28.26484 113.46485 32923 ft 451 kts 357°
2026-05-06 10:10 28.32746 113.46932 32925 ft 451 kts 357°
2026-05-06 10:10 28.39009 113.47386 32925 ft 451 kts 357°
2026-05-06 10:11 28.45269 113.47835 32931 ft 451 kts 357°
2026-05-06 10:11 28.51525 113.48285 32931 ft 450 kts 357°
2026-05-06 10:12 28.57722 113.48726 32931 ft 450 kts 357°
2026-05-06 10:12 28.63974 113.49173 32934 ft 450 kts 357°
2026-05-06 10:13 28.70220 113.49619 32934 ft 449 kts 357°
2026-05-06 10:13 28.76465 113.50062 32934 ft 449 kts 357°
2026-05-06 10:14 28.82704 113.50509 32933 ft 449 kts 357°
2026-05-06 10:14 28.88911 113.50959 32931 ft 449 kts 357°